Location: Street
(51.1247°N, 2.7429°W)
Time: 10:47:25
(UTC+00:00)

Tiros 1 - Pass Details

Date: 01 December 2020
Orbit: 630 x 663 km, 48.4° (Epoch: 21 January)

Event Time Altitude Azimuth Distance (km) Brightness Sun altitude
Rises 16:00:20 0° 245° (WSW) 2,990 12.8 0.0°
Reaches altitude 10° 16:02:44 10° 240° (WSW) 2,079 12.0 -0.3°
Maximum altitude 16:07:23 52° 165° (SSE) 823 7.9 -0.9°
Drops below altitude 10° 16:12:02 10° 90° (E) 2,072 9.3 -1.5°
Sets 16:14:25 0° 85° (E) 2,980 10.0 -1.8°
